"Pseudo-MPEC" for P10QBQq

Created 2019 Aug 18 3:07:03 UT using Find_Orb

Click here for an explanation of pseudo-MPECs

 
 Astrometry: 
     P10QBQq  C2019 06 29h(:Vst+4Weph%(-SP\r;H-!VsKHH-b$'6c;m)e[.mCbFsDr4F%-GF51
     P10QBQq  C2019 06 296atp2Bs*w@:ogCZ#+'FGM?kE.7%;8o2ehT]aAstrometry^Z$u1lF51
     P10QBQq  C2019 06 29rloXso%!4qvbY7!Nmg95BwQZ1m9`$_3J.kx#pSkgSh*3Y_a'LUH,F51
     P10QBQq  C2019 08 12m]q:vX?[kCC\AFRt7tNY$;m=Vti1jlq8OiRKGK`lo](6)41t.9.fF51
     P10QBQq  C2019 08 12.!)duMP??GWH60M7[g]*JeAS,redacted;'.E5O-j2qe_G_XI_-QF51
     P10QBQq  C2019 08 12bt4FDgQTclickMYbLHkY9$QX=R=v!4V;:dlV^Z#]Zj44rGhereQDF51
     P10QBQq ^C2019 08 13.52857501 12 22.889+32 00 28.54   ~8DI7 21.00GVNEOCP568
     P10QBQq ^C2019 08 13.52976801 12 22.997+32 00 29.85   ~8DI7 20.99GVNEOCP568
     P10QBQq ^C2019 08 13.53097701 12 23.111+32 00 31.19   ~8DI7 21.12GVNEOCP568
     P10QBQq  C2019 08 13Jv$c/uramnc'$XAhJx'*!d?Ex-q8J5@gi)baj//-64e2i0]NeGmdF51
     P10QBQq  C2019 08 13T\GxJ\rk%!SAE=P-SdreAO$jn7YEoZlG^NsO.t\Osy%for-DSL?oF51
     P10QBQq  C2019 08 13w_J#P]]uRqhyUpr^$FA-tt3'1ST*0';Z_kBgpnUJI%vb*C)7q#$qF51
     P10QBQq KC2019 08 17+i%9s'I!C):4Gexplanation6Ur*dv.jrpNoy?fVD8;g=TaD#Aa0L01
     P10QBQq pC2019 08 170bFeZQ*V_t)UHx.A??WZ-thHrF:-N$oti*%s:dGCsIv[k;0r4=F?L01
     P10QBQq KC2019 08 17]2/16Y`Z=e-1*U/#X+9ImZL'Qr]Kj`.WItm\Z'SEieODt-VYFY9:L01

Station data:
(568) Mauna Kea  (N19.826116 W155.472200)  US/Hawaii.
(F51) Pan-STARRS 1, Haleakala  (N20.707235 W156.255910)  US/Hawaii.
   Observers N. Primak, A. Schultz, S. Watters, J. Thiel, T. Goggia. Measurer
   PS1 Science Consortium. 1.8-m Ritchey-Chrétien + CCD.
(L01) Višnjan Observatory, Tičan  (N45.290900 E13.749300)  Croatia.
   Observers K. Korlević, E. Pettarin. Measurer E. Pettarin. 1.0-m f/2.9
   reflector + CCD.

Orbital elements:  P10QBQq
   Perihelion 2019 Oct 13.972517 +/- 0.105 TT = 23:20:25 (JD 2458770.472517)
Epoch 2019 Aug 17.0 TT = JDT 2458712.5   Earth MOID: 0.6147   AutoNEOCP
M 346.53147127 +/- 0.06             (J2000 ecliptic)
n   0.23232609 +/- 0.000626         Peri.  129.70318 +/- 0.08
a   2.62061998 +/- 0.0047           Node   258.61003 +/- 0.030
e   0.4007657 +/- 0.000846          Incl.   13.60810 +/- 0.0033
P   4.24                   H 18.7   G  0.15   U  7.8  
q 1.57036536 +/- 0.000607    Q 3.67087460 +/- 0.00885
From 15 observations 2019 June 29-Aug. 17; mean residual 0".16
Residuals in arcseconds: 
190629 F51  .11+  .01+    190812 F51  .00   .03-    190813 F51  .09-  .04+    
190629 F51  .08-  .12-    190813 568  .03+  .05+    190813 F51  .08-  .01-    
190629 F51  .04-  .11+    190813 568  .00   .03+    190817 L01  .42-  .19+    
190812 F51  .15+  .16+    190813 568  .04+  .02+    190817 L01  .09+  .45-    
190812 F51  .12-  .21-    190813 F51  .05+  .07-    190817 L01  .34+  .25+    

Ephemerides (geocentric):
Date (UTC) HH   RA              Dec         delta   r     elong  mag " sig PA
---- -- -- --  -------------   -----------  ------ ------ -----  --- ---- ---
2019 08 18 03  01 19 36.999   +33 23 16.87  .98013 1.6448 111.3 21.2 .202 149
2019 08 18 04  01 19 40.873   +33 24 00.96  .97979 1.6447 111.3 21.2 .205 149
2019 08 18 05  01 19 44.746   +33 24 45.03  .97945 1.6446 111.3 21.2 .208 149
2019 08 18 06  01 19 48.618   +33 25 29.08  .97911 1.6445 111.3 21.2 .210 149
2019 08 18 07  01 19 52.488   +33 26 13.12  .97877 1.6444 111.3 21.2 .213 149
2019 08 18 08  01 19 56.357   +33 26 57.14  .97843 1.6443 111.4 21.2 .216 149
2019 08 18 09  01 20 00.225   +33 27 41.13  .97809 1.6442 111.4 21.2 .219 149
2019 08 18 10  01 20 04.092   +33 28 25.11  .97775 1.6440 111.4 21.2 .222 149
2019 08 18 11  01 20 07.957   +33 29 09.08  .97742 1.6439 111.4 21.2 .225 149
2019 08 18 12  01 20 11.821   +33 29 53.02  .97708 1.6438 111.4 21.2 .227 149
2019 08 18 13  01 20 15.684   +33 30 36.94  .97674 1.6437 111.4 21.2 .230 149
2019 08 18 14  01 20 19.546   +33 31 20.85  .97640 1.6436 111.5 21.2 .233 149
2019 08 18 15  01 20 23.406   +33 32 04.74  .97606 1.6435 111.5 21.2 .236 149
2019 08 18 16  01 20 27.265   +33 32 48.60  .97573 1.6434 111.5 21.2 .239 149
2019 08 18 17  01 20 31.123   +33 33 32.45  .97539 1.6433 111.5 21.2 .242 149
2019 08 18 18  01 20 34.980   +33 34 16.28  .97505 1.6432 111.5 21.2 .245 149
2019 08 18 19  01 20 38.835   +33 35 00.10  .97471 1.6431 111.6 21.2 .248 149
2019 08 18 20  01 20 42.689   +33 35 43.89  .97438 1.6430 111.6 21.2 .251 149
2019 08 18 21  01 20 46.542   +33 36 27.66  .97404 1.6429 111.6 21.2 .254 149
2019 08 18 22  01 20 50.394   +33 37 11.42  .97370 1.6428 111.6 21.2 .257 149
2019 08 18 23  01 20 54.244   +33 37 55.16  .97337 1.6427 111.6 21.2 .259 149
2019 08 19 00  01 20 58.093   +33 38 38.88  .97303 1.6426 111.7 21.2 .262 149
2019 08 19 01  01 21 01.941   +33 39 22.57  .97269 1.6425 111.7 21.2 .265 149
2019 08 19 02  01 21 05.787   +33 40 06.25  .97236 1.6424 111.7 21.2 .268 149
2019 08 19 03  01 21 09.632   +33 40 49.92  .97202 1.6423 111.7 21.2 .271 149
2019 08 19 04  01 21 13.476   +33 41 33.56  .97168 1.6422 111.7 21.2 .274 149
2019 08 19 05  01 21 17.319   +33 42 17.18  .97135 1.6421 111.7 21.2 .277 149
2019 08 19 06  01 21 21.160   +33 43 00.79  .97101 1.6420 111.8 21.2 .280 149
2019 08 19 07  01 21 25.000   +33 43 44.37  .97068 1.6419 111.8 21.2 .283 149
2019 08 19 08  01 21 28.839   +33 44 27.94  .97034 1.6418 111.8 21.2 .286 149
2019 08 19 09  01 21 32.676   +33 45 11.48  .97000 1.6417 111.8 21.2 .289 149
2019 08 19 10  01 21 36.512   +33 45 55.01  .96967 1.6416 111.8 21.2 .292 149
2019 08 19 11  01 21 40.347   +33 46 38.52  .96933 1.6415 111.9 21.2 .295 149
2019 08 19 12  01 21 44.180   +33 47 22.01  .96900 1.6414 111.9 21.2 .298 149
2019 08 19 13  01 21 48.013   +33 48 05.48  .96866 1.6413 111.9 21.2 .301 149
2019 08 19 14  01 21 51.844   +33 48 48.93  .96833 1.6412 111.9 21.2 .304 149
2019 08 19 15  01 21 55.673   +33 49 32.36  .96799 1.6411 111.9 21.2 .307 149
2019 08 19 16  01 21 59.501   +33 50 15.77  .96766 1.6410 111.9 21.2 .310 149
2019 08 19 17  01 22 03.328   +33 50 59.16  .96732 1.6409 112.0 21.2 .313 149
2019 08 19 18  01 22 07.154   +33 51 42.54  .96699 1.6408 112.0 21.2 .316 149
2019 08 19 19  01 22 10.978   +33 52 25.89  .96665 1.6406 112.0 21.2 .320 149
2019 08 19 20  01 22 14.801   +33 53 09.22  .96632 1.6405 112.0 21.2 .323 149
2019 08 19 21  01 22 18.622   +33 53 52.54  .96599 1.6404 112.0 21.2 .326 149
2019 08 19 22  01 22 22.443   +33 54 35.83  .96565 1.6403 112.1 21.2 .329 149
2019 08 19 23  01 22 26.262   +33 55 19.11  .96532 1.6402 112.1 21.2 .332 149
2019 08 20 00  01 22 30.079   +33 56 02.36  .96498 1.6401 112.1 21.2 .335 149
2019 08 20 01  01 22 33.895   +33 56 45.60  .96465 1.6400 112.1 21.2 .338 149
2019 08 20 02  01 22 37.710   +33 57 28.82  .96432 1.6399 112.1 21.2 .341 149